• In Netherlands
  • List of Countries
  • For 7 days
  • Water Temperature
  • Satellite Maps
  • Weather Map
  • Weather Widgets
  • user-avatar
    Login

    Hourly Weather Río Gallegos

    Today, 24 August, Thursday

    Time Temperature Precipitation Wind Pressure Humidity
    00:00 +2°C° 0 mm 11 mps 735 mmHg 71%
    01:00 +1°C° 0 mm 11 mps 734 mmHg 73%
    02:00 +1°C° 0 mm 10 mps 735 mmHg 74%
    03:00 0°C° 0 mm 9 mps 735 mmHg 74%
    04:00 0°C° 0 mm 8 mps 735 mmHg 75%
    05:00 0°C° 0 mm 7 mps 735 mmHg 74%
    06:00 -1°C° 0 mm 6 mps 736 mmHg 73%
    07:00 0°C° 0 mm 5 mps 736 mmHg 73%
    08:00 +1°C° 0 mm 4 mps 736 mmHg 67%
    09:00 +3°C° 0 mm 3 mps 736 mmHg 61%
    10:00 +4°C° 0 mm 3 mps 736 mmHg 56%
    11:00 +5°C° 0 mm 3 mps 736 mmHg 52%
    12:00 +6°C° 0 mm 4 mps 736 mmHg 49%
    13:00 +7°C° 0 mm 4 mps 736 mmHg 46%
    14:00 +5°C° 0.1 mm 7 mps 737 mmHg 52%
    15:00 +3°C° 0.1 mm 9 mps 738 mmHg 59%
    16:00 +2°C° 0.1 mm 12 mps 739 mmHg 65%
    17:00 0°C° 0 mm 12 mps 740 mmHg 63%
    18:00 -1°C° 0 mm 12 mps 741 mmHg 61%
    19:00 -1°C° 0 mm 13 mps 742 mmHg 58%
    20:00 -2°C° 0 mm 12 mps 743 mmHg 60%
    21:00 -2°C° 0 mm 12 mps 743 mmHg 62%
    22:00 -2°C° 0 mm 11 mps 744 mmHg 63%
    23:00 -2°C° 0 mm 11 mps 745 mmHg 63%

    Tomorrow, 25 August, Friday

    Time Temperature Precipitation Wind Pressure Humidity
    00:00 -2°C° 0 mm 12 mps 745 mmHg 63%
    01:00 -2°C° 0 mm 12 mps 746 mmHg 63%
    02:00 -2°C° 0 mm 12 mps 747 mmHg 63%
    03:00 -2°C° 0 mm 12 mps 747 mmHg 62%
    04:00 -2°C° 0 mm 12 mps 748 mmHg 62%
    05:00 -3°C° 0 mm 11 mps 749 mmHg 61%
    06:00 -3°C° 0 mm 9 mps 750 mmHg 61%
    07:00 -2°C° 0 mm 8 mps 750 mmHg 60%
    08:00 -1°C° 0 mm 8 mps 751 mmHg 55%
    09:00 +1°C° 0 mm 8 mps 752 mmHg 50%
    10:00 +3°C° 0 mm 7 mps 752 mmHg 45%
    11:00 +3°C° 0 mm 6 mps 752 mmHg 44%
    12:00 +4°C° 0 mm 6 mps 752 mmHg 43%
    13:00 +5°C° 0 mm 5 mps 752 mmHg 42%
    14:00 +5°C° 0 mm 5 mps 752 mmHg 45%
    15:00 +5°C° 0 mm 5 mps 753 mmHg 49%
    16:00 +5°C° 0 mm 5 mps 753 mmHg 52%
    17:00 +5°C° 0 mm 5 mps 753 mmHg 57%
    18:00 +3°C° 0 mm 5 mps 753 mmHg 61%
    19:00 +3°C° 0 mm 5 mps 753 mmHg 65%
    20:00 +3°C° 0 mm 5 mps 753 mmHg 65%
    21:00 +3°C° 0 mm 5 mps 753 mmHg 65%
    22:00 +3°C° 0 mm 5 mps 753 mmHg 64%
    23:00 +3°C° 0 mm 5 mps 753 mmHg 65%

    Day after tomorrow, 26 August, Saturday

    Time Temperature Precipitation Wind Pressure Humidity
    00:00 +4°C° 0 mm 4 mps 753 mmHg 66%
    01:00 +4°C° 0 mm 4 mps 752 mmHg 66%
    02:00 +4°C° 0 mm 4 mps 752 mmHg 68%
    03:00 +3°C° 0 mm 4 mps 752 mmHg 69%
    04:00 +3°C° 0 mm 3 mps 752 mmHg 70%
    05:00 +3°C° 0 mm 3 mps 752 mmHg 71%
    06:00 +3°C° 0 mm 3 mps 752 mmHg 73%
    07:00 +3°C° 0 mm 3 mps 752 mmHg 74%
    08:00 +4°C° 0 mm 3 mps 753 mmHg 71%
    09:00 +5°C° 0 mm 3 mps 753 mmHg 69%
    10:00 +7°C° 0 mm 3 mps 753 mmHg 66%
    11:00 +7°C° 0 mm 2 mps 753 mmHg 64%
    12:00 +8°C° 0 mm 2 mps 754 mmHg 62%
    13:00 +8°C° 0 mm 2 mps 754 mmHg 59%
    14:00 +8°C° 0 mm 2 mps 754 mmHg 62%
    15:00 +8°C° 0 mm 2 mps 754 mmHg 64%
    16:00 +8°C° 0 mm 2 mps 755 mmHg 66%
    17:00 +7°C° 0 mm 3 mps 755 mmHg 72%
    18:00 +5°C° 0 mm 3 mps 756 mmHg 78%
    19:00 +4°C° 0 mm 3 mps 756 mmHg 84%
    20:00 +3°C° 0 mm 4 mps 756 mmHg 86%
    21:00 +3°C° 0 mm 4 mps 757 mmHg 89%
    22:00 +1°C° 0 mm 4 mps 757 mmHg 92%
    23:00 +1°C° 0 mm 4 mps 757 mmHg 92%

    27 August, Sunday

    Time Temperature Precipitation Wind Pressure Humidity
    00:00 +1°C° 0 mm 4 mps 758 mmHg 92%
    01:00 0°C° 0 mm 4 mps 758 mmHg 92%
    02:00 0°C° 0 mm 5 mps 758 mmHg 92%
    03:00 0°C° 0 mm 5 mps 758 mmHg 91%
    04:00 0°C° 0 mm 5 mps 758 mmHg 90%
    05:00 0°C° 0 mm 5 mps 758 mmHg 89%
    06:00 0°C° 0 mm 5 mps 759 mmHg 88%
    07:00 0°C° 0 mm 5 mps 759 mmHg 87%
    08:00 +1°C° 0 mm 5 mps 759 mmHg 81%
    09:00 +2°C° 0 mm 5 mps 760 mmHg 76%
    10:00 +4°C° 0 mm 4 mps 760 mmHg 70%
    11:00 +5°C° 0 mm 4 mps 760 mmHg 66%
    12:00 +6°C° 0 mm 4 mps 760 mmHg 62%
    13:00 +7°C° 0 mm 4 mps 760 mmHg 58%
    14:00 +6°C° 0 mm 4 mps 760 mmHg 60%
    15:00 +6°C° 0 mm 4 mps 760 mmHg 62%
    16:00 +6°C° 0 mm 4 mps 760 mmHg 64%
    17:00 +5°C° 0 mm 3 mps 760 mmHg 68%
    18:00 +4°C° 0 mm 3 mps 760 mmHg 73%
    19:00 +3°C° 0 mm 3 mps 760 mmHg 78%
    20:00 +3°C° 0 mm 3 mps 760 mmHg 80%
    21:00 +3°C° 0 mm 3 mps 760 mmHg 82%
    22:00 +2°C° 0 mm 3 mps 760 mmHg 84%
    23:00 +2°C° 0 mm 3 mps 760 mmHg 84%

    28 August, Monday

    Time Temperature Precipitation Wind Pressure Humidity
    00:00 0°C° 0 mm 4 mps 760 mmHg 84%
    01:00 0°C° 0 mm 4 mps 760 mmHg 84%
    02:00 0°C° 0 mm 4 mps 760 mmHg 82%
    03:00 -1°C° 0 mm 4 mps 760 mmHg 80%
    04:00 -1°C° 0 mm 4 mps 760 mmHg 78%
    05:00 -1°C° 0 mm 4 mps 760 mmHg 77%
    06:00 -1°C° 0 mm 4 mps 760 mmHg 76%
    07:00 -1°C° 0 mm 4 mps 760 mmHg 74%
    08:00 +1°C° 0 mm 5 mps 760 mmHg 68%
    09:00 +2°C° 0 mm 5 mps 760 mmHg 61%
    10:00 +3°C° 0 mm 6 mps 760 mmHg 55%
    11:00 +4°C° 0 mm 6 mps 759 mmHg 52%
    12:00 +5°C° 0 mm 6 mps 759 mmHg 49%
    13:00 +7°C° 0 mm 6 mps 758 mmHg 46%
    14:00 +7°C° 0 mm 6 mps 758 mmHg 48%
    15:00 +6°C° 0 mm 5 mps 758 mmHg 50%
    16:00 +6°C° 0 mm 5 mps 758 mmHg 53%
    17:00 +5°C° 0 mm 5 mps 758 mmHg 58%
    18:00 +4°C° 0 mm 4 mps 758 mmHg 64%
    19:00 +3°C° 0 mm 4 mps 758 mmHg 69%
    20:00 +2°C° 0 mm 5 mps 758 mmHg 70%
    21:00 +1°C° 0 mm 5 mps 758 mmHg 71%
    22:00 +1°C° 0 mm 6 mps 758 mmHg 72%
    23:00 +1°C° 0 mm 6 mps 757 mmHg 71%

    29 August, Tuesday

    Time Temperature Precipitation Wind Pressure Humidity
    00:00 0°C° 0 mm 7 mps 757 mmHg 70%
    01:00 0°C° 0 mm 7 mps 757 mmHg 69%
    02:00 0°C° 0 mm 8 mps 757 mmHg 68%
    03:00 0°C° 0 mm 8 mps 756 mmHg 67%
    04:00 0°C° 0 mm 9 mps 756 mmHg 66%
    05:00 0°C° 0 mm 9 mps 756 mmHg 66%
    06:00 0°C° 0 mm 9 mps 756 mmHg 65%
    07:00 0°C° 0 mm 9 mps 756 mmHg 65%
    08:00 +2°C° 0 mm 10 mps 756 mmHg 63%
    09:00 +3°C° 0 mm 10 mps 756 mmHg 62%
    10:00 +6°C° 0 mm 10 mps 756 mmHg 60%
    11:00 +6°C° 0 mm 10 mps 756 mmHg 59%
    12:00 +7°C° 0 mm 10 mps 756 mmHg 58%
    13:00 +7°C° 0 mm 10 mps 755 mmHg 57%
    14:00 +7°C° 0 mm 10 mps 755 mmHg 58%
    15:00 +6°C° 0 mm 9 mps 756 mmHg 60%
    16:00 +6°C° 0 mm 9 mps 756 mmHg 61%
    17:00 +5°C° 0 mm 9 mps 756 mmHg 64%
    18:00 +4°C° 0 mm 8 mps 756 mmHg 66%
    19:00 +4°C° 0 mm 8 mps 757 mmHg 69%
    20:00 +2°C° 0 mm 8 mps 757 mmHg 69%
    21:00 +2°C° 0 mm 8 mps 757 mmHg 70%
    22:00 +3°C° 0 mm 7 mps 757 mmHg 70%
    23:00 +2°C° 0 mm 7 mps 757 mmHg 71%
    Show more